Location: Bay Ridge
(40.6340°N, 74.0146°W)
Time: 20:48:04
(UTC+00:00)

SJ 16-02 - Pass Details

Date: 15 November 2019
Orbit: 606 x 616 km, 75.0° (Epoch: 13 December)

Event Time Altitude Azimuth Distance (km) Brightness Sun altitude
Rises 11:08:43 0° 245° (WSW) 2,861 4.3 -6.8°
Reaches altitude 10° 11:12:05 10° 273° (W) 1,960 3.3 -6.2°
Maximum altitude 11:14:11 13° 302° (WNW) 1,759 3.1 -5.8°
Drops below altitude 10° 11:16:17 10° 331° (NNW) 1,964 3.5 -5.4°
Sets 11:19:42 0° 359° (N) 2,873 4.6 -4.8°
